Temp
26 26 26 25 25 25 25 24 24 23 23 22 22 21 21 22 21 20 20 20 20 20 21 21 20 20 20 20 20 20 19 20 19 20 19 20 20 21 20 19 20 20 19
25 24 24 23 23 23 23 23 23 22 22 21 21 21 21 20 20 20 20 20 20 20 20 20 20 19 19 19 19 20 20 20 20 21 22 20 19 19 19 19 19 19 19
24 24 24 24 24 22 22 22 21 20 20 20 19 19 19 20 20 20 20 21 21 21 21 21 20 20 19 18 19 19 19 19 20 20 20 20 19 19 19 19 19 18 18
26 26 25 22 20 20 20 20 20 19 19 19 20 20 21 21 21 20 20 20 20 20 20 19 18 17 18 17 18 19 19 19 19 19 20 18 18 18 18 18 17 17 17
23 23 25 22 20 19 19 19 20 20 20 21 20 20 20 20 19 19 19 19 19 18 18 18 18 17 16 16 17 18 18 18 18 17 18 20 20 19 18 17 16 16 15
22 22 23 20 21 21 21 20 20 20 20 20 19 19 20 19 19 18 17 17 17 16 16 16 16 16 16 16 17 17 17 17 18 17 18 20 20 19 18 17 16 15 15
24 24 21 21 22 21 20 20 20 19 19 19 19 18 17 17 15 15 15 15 15 15 15 15 13 13 13 14 16 17 17 17 17 17 19 19 19 19 19 17 15 15 15
21 22 21 21 21 20 19 19 18 19 19 19 17 15 13 12 12 12 13 14 14 14 15 14 14 14 14 14 15 16 17 17 17 16 17 17 17 17 18 16 15 15 15
21 21 20 19 18 18 18 18 18 18 17 16 14 13 12 12 12 12 13 13 14 14 14 14 14 14 14 15 15 16 16 15 15 16 16 16 17 16 16 16 15 15 14
19 18 18 17 18 18 17 17 17 16 15 14 13 12 11 12 13 13 13 13 13 14 14 14 14 14 14 15 15 14 14 15 15 15 15 16 15 15 15 15 15 14 14
17 18 18 18 17 16 16 16 16 14 12 12 12 12 11 11 12 11 12 12 12 13 13 14 14 14 14 14 14 14 14 15 14 14 14 14 14 15 14 14 14 14 13
18 18 17 16 15 15 15 15 14 13 12 12 11 11 11 11 10 10 11 11 11 11 12 12 13 14 14 14 14 14 14 14 14 14 13 14 14 14 14 14 13 13 13
16 15 15 15 14 14 14 13 12 12 12 10 10 10 10 10 10 10 10 10 10 10 11 11 12 13 14 13 14 14 13 14 14 13 14 13 13 13 13 13 13 13 13
15 15 14 14 14 14 13 13 12 11 10 9 9 9 9 8 10 10 10 9 9 10 10 11 11 12 12 11 12 12 12 12 11 12 13 12 11 12 12 12 12 11 12
14 14 14 13 13 12 12 12 11 10 9 9 9 8 8 7 8 8 9 9 8 9 10 10 10 10 10 10 9 10 11 11 12 8 8 8 9 10 10 10 11 11 10
13 13 13 12 12 12 11 11 11 10 10 9 9 9 8 8 8 9 9 9 9 9 10 9 9 9 9 9 9 9 9 9 9 9 9 8 9 10 10 10 9 10 10
13 13 12 12 12 11 11 10 10 10 10 10 10 9 9 9 9 9 9 9 9 9 9 9 8 8 8 9 9 9 8 8 8 8 9 8 8 8 9 10 10 9 9
13 12 12 12 11 11 11 10 10 10 10 10 10 10 10 10 10 10 10 10 9 8 8 8 9 8 8 8 8 8 8 8 8 8 8 8 8 8 9 9 9 9 9
12 12 12 12 11 11 11 11 10 10 10 10 10 10 10 10 10 10 10 10 10 9 8 9 9 9 9 9 9 9 9 9 9 8 8 8 8 9 9 9 9 8 9
12 12 12 12 12 11 11 11 11 11 11 11 11 11 11 11 10 10 10 10 10 10 9 9 9 9 9 9 9 10 10 10 10 10 10 9 9 9 9 9 9 10 10
12 12 12 12 12 12 11 11 11 11 11 11 11 11 11 11 11 11 11 11 11 10 10 10 10 10 10 10 9 9 9 10 10 10 10 10 10 10 10 10 10 10 10
13 12 12 12 12 12 11 12 12 12 12 12 12 12 12 12 11 11 12 11 11 11 11 11 11 10 10 10 10 10 10 10 10 10 10 10 10 10 10 10 10 9 10
13 12 12 12 12 12 12 12 12 12 12 12 12 12 12 12 12 12 12 12 12 11 11 11 11 11 11 11 11 11 10 10 10 10 10 11 10 10 10 9 10 10 9
13 12 12 12 12 12 12 12 12 12 13 13 13 13 13 12 12 12 12 12 12 12 12 11 11 11 11 11 11 11 11 11 11 10 10 10 10 10 9 9 9 9 8
12 12 12 12 11 12 11 12 12 13 13 13 13 13 12 13 13 13 12 12 12 12 12 12 11 11 11 11 11 11 11 10 10 10 10 10 10 9 9 9 9 8 8
12 12 12 12 12 11 12 12 13 13 13 13 13 13 13 13 13 13 13 13 12 12 12 12 12 12 11 11 11 11 11 10 10 10 10 10 9 9 8 8 8 7 7
Height
1497 1502 1504 1507 1509 1512 1514 1516 1516 1516 1516 1515 1515 1515 1513 1512 1511 1509 1507 1505 1503 1501 1500 1499 1498 1498 1497 1495 1493 1492 1490 1490 1488 1484 1487 1487 1486 1487 1489 1489 1488 1487 1485
1491 1497 1500 1505 1509 1510 1509 1509 1510 1511 1510 1510 1509 1508 1506 1505 1504 1502 1501 1498 1496 1494 1492 1491 1489 1488 1486 1485 1483 1482 1481 1482 1480 1475 1478 1478 1479 1481 1481 1481 1480 1478 1477
1485 1491 1496 1499 1503 1505 1505 1505 1505 1506 1506 1506 1503 1502 1500 1498 1496 1495 1492 1489 1486 1484 1482 1481 1479 1478 1477 1476 1474 1472 1472 1472 1470 1470 1469 1471 1473 1473 1473 1472 1472 1470 1469
1482 1488 1489 1497 1501 1500 1501 1502 1500 1502 1501 1501 1498 1496 1493 1490 1487 1485 1481 1478 1475 1473 1471 1470 1469 1468 1466 1466 1465 1463 1462 1462 1462 1461 1460 1463 1465 1466 1465 1465 1464 1464 1463
1480 1487 1486 1493 1496 1497 1499 1500 1499 1498 1496 1493 1491 1489 1484 1482 1479 1476 1472 1469 1465 1462 1461 1458 1456 1454 1454 1455 1455 1453 1453 1452 1451 1452 1452 1452 1456 1457 1459 1459 1459 1460 1460
1482 1484 1483 1488 1489 1491 1494 1495 1494 1493 1491 1489 1486 1482 1478 1475 1471 1468 1463 1459 1455 1453 1450 1448 1446 1443 1440 1440 1442 1442 1443 1442 1441 1442 1442 1444 1445 1447 1451 1454 1455 1457 1458
1479 1480 1484 1487 1485 1487 1492 1493 1491 1489 1486 1482 1478 1474 1471 1468 1464 1460 1456 1452 1448 1445 1442 1439 1436 1435 1432 1430 1430 1430 1430 1431 1432 1433 1434 1436 1438 1439 1443 1446 1450 1452 1454
1481 1478 1486 1485 1486 1489 1489 1487 1486 1482 1478 1474 1472 1470 1467 1465 1460 1455 1451 1447 1443 1440 1436 1432 1427 1425 1423 1422 1421 1419 1420 1421 1422 1424 1426 1430 1433 1435 1434 1439 1444 1448 1451
1475 1479 1481 1485 1485 1485 1482 1483 1481 1476 1474 1472 1470 1467 1464 1461 1457 1452 1447 1442 1439 1436 1431 1426 1422 1418 1416 1415 1413 1412 1412 1413 1416 1419 1422 1426 1428 1431 1433 1433 1439 1444 1447
1478 1480 1482 1483 1482 1480 1480 1478 1475 1474 1473 1469 1466 1464 1460 1455 1452 1447 1443 1439 1435 1430 1427 1422 1418 1413 1410 1408 1406 1406 1407 1408 1410 1414 1417 1421 1424 1426 1429 1432 1436 1441 1444
1477 1478 1478 1478 1479 1479 1478 1477 1475 1473 1470 1468 1465 1462 1458 1454 1450 1446 1442 1437 1430 1426 1422 1417 1413 1408 1404 1402 1401 1400 1402 1404 1407 1411 1415 1418 1421 1420 1426 1429 1434 1438 1441
1475 1476 1477 1478 1478 1479 1479 1476 1474 1472 1470 1467 1465 1463 1460 1456 1453 1446 1440 1435 1429 1424 1419 1415 1409 1404 1399 1397 1396 1397 1398 1400 1404 1407 1411 1413 1416 1416 1420 1427 1433 1437 1441
1475 1477 1477 1479 1479 1479 1478 1476 1475 1472 1469 1469 1468 1464 1462 1458 1452 1446 1440 1433 1428 1423 1419 1414 1408 1402 1397 1393 1392 1393 1396 1398 1400 1405 1408 1409 1412 1415 1420 1426 1433 1437 1441
1475 1477 1478 1479 1479 1479 1479 1478 1475 1473 1472 1471 1470 1466 1462 1456 1451 1447 1441 1434 1430 1425 1419 1414 1409 1403 1398 1394 1392 1392 1393 1395 1399 1402 1404 1407 1410 1415 1422 1428 1433 1438 1440
1476 1478 1479 1479 1480 1482 1481 1479 1477 1475 1475 1474 1471 1465 1462 1459 1455 1450 1444 1439 1433 1429 1423 1417 1412 1408 1403 1398 1396 1396 1397 1399 1399 1405 1401 1406 1410 1418 1424 1429 1434 1437 1441
1477 1478 1480 1481 1482 1482 1482 1481 1480 1478 1476 1475 1473 1469 1466 1464 1458 1453 1448 1443 1439 1434 1427 1422 1418 1415 1411 1408 1405 1404 1404 1405 1405 1407 1408 1419 1420 1426 1430 1433 1438 1441 1443
1476 1478 1479 1481 1481 1482 1483 1483 1482 1480 1478 1475 1474 1473 1470 1466 1461 1454 1451 1446 1441 1438 1433 1430 1427 1423 1421 1417 1416 1416 1415 1415 1415 1417 1419 1421 1424 1431 1433 1437 1442 1445 1448
1476 1477 1479 1480 1481 1482 1481 1481 1480 1480 1479 1478 1476 1474 1471 1467 1463 1458 1454 1450 1445 1441 1438 1436 1433 1431 1428 1426 1425 1424 1423 1422 1423 1423 1427 1431 1433 1435 1437 1441 1443 1448 1450
1475 1477 1478 1480 1480 1481 1481 1481 1481 1479 1479 1477 1476 1473 1470 1467 1464 1460 1456 1453 1449 1445 1442 1441 1439 1437 1435 1433 1432 1431 1432 1432 1431 1432 1433 1435 1437 1438 1442 1446 1449 1452 1453
1473 1475 1477 1478 1479 1479 1480 1480 1479 1479 1478 1476 1474 1472 1469 1467 1464 1461 1458 1455 1453 1450 1447 1445 1444 1442 1441 1439 1438 1438 1437 1438 1438 1438 1438 1439 1441 1443 1445 1448 1451 1454 1456
1471 1473 1474 1475 1476 1477 1478 1478 1477 1477 1475 1474 1472 1471 1469 1466 1463 1461 1459 1457 1455 1453 1451 1448 1446 1446 1445 1444 1443 1443 1443 1442 1442 1443 1443 1443 1445 1447 1450 1452 1453 1455 1455
1468 1469 1471 1472 1473 1474 1475 1474 1474 1474 1473 1472 1471 1469 1468 1466 1463 1462 1459 1458 1456 1454 1452 1451 1449 1448 1447 1446 1445 1445 1446 1446 1445 1445 1446 1446 1448 1449 1450 1452 1453 1453 1454
1462 1464 1466 1468 1469 1470 1471 1471 1471 1471 1471 1469 1468 1467 1466 1465 1463 1462 1460 1458 1456 1454 1453 1452 1451 1449 1449 1447 1446 1446 1446 1447 1446 1447 1448 1448 1450 1450 1451 1451 1450 1451 1451
1455 1457 1460 1463 1465 1465 1466 1467 1468 1468 1468 1467 1466 1465 1464 1463 1462 1461 1459 1457 1456 1454 1453 1452 1451 1450 1450 1449 1448 1447 1447 1447 1447 1447 1448 1449 1449 1450 1450 1450 1450 1450 1450
1448 1450 1453 1456 1459 1461 1462 1463 1464 1464 1465 1465 1464 1463 1462 1460 1459 1458 1457 1455 1454 1453 1452 1451 1450 1449 1449 1449 1448 1448 1448 1448 1448 1448 1449 1449 1449 1449 1449 1449 1448 1447 1446
1443 1445 1447 1450 1454 1456 1458 1459 1460 1461 1461 1461 1461 1461 1459 1458 1457 1455 1454 1453 1452 1451 1451 1450 1449 1448 1448 1447 1447 1447 1447 1447 1447 1447 1448 1447 1446 1445 1444 1444 1443 1442 1440
Wind_Speed
23 23 22 22 22 22 24 24 26 28 29 29 29 27 27 29 30 29 29 30 31 32 34 34 35 32 31 32 29 30 32 31 31 37 32 37 35 28 22 23 26 30 34
15 15 14 14 15 15 18 23 26 28 28 27 27 28 28 29 30 31 33 32 33 35 35 35 36 33 34 33 33 33 33 34 34 39 37 38 35 29 25 26 29 32 32
11 8 8 12 16 17 18 19 20 21 22 24 26 29 29 30 31 32 33 34 35 36 36 37 38 37 35 36 34 34 35 34 36 37 33 33 28 26 26 27 29 26 24
10 7 9 9 11 11 13 14 16 20 23 26 26 26 27 29 31 32 32 33 34 34 35 36 35 33 36 34 34 35 35 35 36 36 34 30 27 25 28 26 22 22 19
13 8 2 10 10 9 12 15 17 19 20 22 24 25 26 27 28 30 31 32 33 34 34 35 35 36 35 35 34 36 34 34 36 35 35 29 26 23 22 21 18 14 13
11 5 3 4 6 9 13 15 16 18 19 21 22 23 25 26 27 28 28 30 32 33 35 34 33 33 33 33 33 33 35 35 35 33 32 28 26 25 26 19 12 10 9
3 5 3 4 7 10 12 14 15 16 17 19 21 23 24 24 23 23 24 26 28 29 30 31 29 27 29 28 30 29 31 34 33 33 31 32 32 22 22 16 13 17 13
1 2 2 5 6 8 11 13 14 17 20 21 21 20 21 20 22 23 22 23 24 23 25 27 27 28 26 24 26 27 27 29 29 28 26 23 22 19 17 15 15 15 14
5 2 1 3 6 8 12 13 15 18 19 18 17 17 19 19 22 23 24 24 22 21 23 21 20 23 23 23 24 26 25 23 23 20 18 18 16 17 18 17 18 19 17
5 4 5 7 9 11 12 14 16 16 16 16 15 14 16 18 22 21 20 22 20 20 21 21 18 18 18 19 18 20 22 25 25 25 23 22 21 19 15 15 15 17 18
6 5 6 8 9 10 11 12 13 13 15 15 15 16 17 19 18 15 16 17 18 18 19 20 18 20 18 16 13 16 18 23 24 24 22 21 21 20 20 17 16 19 17
3 4 5 6 7 9 11 12 14 14 13 16 17 17 19 21 21 19 17 18 17 17 19 19 19 19 17 15 12 12 19 22 24 26 25 24 23 23 20 19 17 16 13
4 6 7 8 10 12 14 15 15 16 19 21 20 21 21 23 27 26 24 21 20 18 19 20 21 20 13 9 13 15 23 22 24 25 28 26 24 21 19 19 17 15 14
8 9 10 9 9 11 13 15 15 16 18 19 20 21 22 24 25 29 31 29 25 21 18 18 18 17 16 12 9 8 15 16 19 28 31 27 25 23 21 19 18 15 15
10 10 9 10 11 11 13 16 17 18 18 19 21 24 25 23 28 27 27 26 25 22 17 19 20 20 18 15 8 4 3 6 6 11 26 26 24 21 19 17 17 15 14
9 9 10 10 9 10 12 14 16 17 17 19 20 22 22 24 21 27 25 22 20 18 24 26 24 24 20 18 18 20 20 19 19 19 18 16 20 17 18 18 12 15 15
10 10 8 6 7 7 7 9 8 10 10 12 14 15 17 21 22 23 25 22 19 14 20 20 21 25 26 24 19 20 20 18 20 24 24 20 18 13 14 12 12 12 10
11 10 8 6 4 3 5 6 6 7 8 10 11 11 13 17 19 20 23 28 22 22 15 17 19 20 20 20 24 24 18 18 22 23 22 18 16 20 17 13 11 8 7
13 10 8 5 2 1 1 3 5 6 8 9 9 9 12 13 13 14 15 18 21 23 17 12 14 16 18 19 18 13 14 16 19 18 13 16 9 2 4 7 7 8 4
14 12 10 8 6 4 3 3 5 7 8 8 9 11 13 13 11 12 14 15 14 16 15 11 9 11 11 12 13 12 10 8 10 9 8 6 8 10 8 7 7 7 6
17 16 14 11 9 8 7 6 7 7 9 8 8 8 10 13 13 12 12 13 12 10 11 9 6 5 9 10 9 10 9 9 8 7 6 4 4 2 4 4 4 3 3
18 19 17 14 12 10 9 8 7 8 8 8 7 7 8 11 10 10 10 10 11 11 9 9 8 7 7 7 6 5 5 5 6 6 5 4 3 2 2 0 1 1 2
24 22 19 16 14 12 11 9 9 7 7 7 8 8 9 8 7 8 8 8 8 7 7 8 8 6 5 7 5 2 4 4 3 3 2 0 1 3 4 4 6 6 4
25 25 24 20 15 13 13 11 9 8 7 6 8 8 8 7 7 7 7 7 6 6 5 6 5 4 5 4 4 3 3 3 1 1 2 4 3 4 5 4 4 6 6
21 25 24 23 19 16 12 9 8 8 6 7 8 8 8 6 6 6 7 7 7 6 5 3 4 3 2 3 1 1 2 2 2 3 7 5 6 6 5 5 7 9 12
16 17 21 24 18 13 13 14 11 9 8 8 9 10 9 10 8 6 7 6 5 5 6 6 5 3 4 5 4 5 6 5 4 5 6 8 9 10 9 10 12 12 13
Wind_Direction
244 241 243 254 258 261 262 263 263 263 264 266 271 274 276 281 286 286 282 280 283 285 284 283 281 279 275 273 274 271 266 265 259 273 267 274 279 282 279 279 285 287 287
220 237 246 265 269 260 254 254 258 263 267 270 271 272 278 280 282 282 282 282 283 282 281 280 279 278 276 272 268 265 267 267 267 266 273 272 280 276 280 285 289 289 285
180 201 230 249 255 258 262 267 271 270 268 269 275 284 286 288 288 286 285 284 282 280 280 278 277 274 271 273 272 270 266 267 267 268 264 267 273 269 279 283 288 286 281
142 189 203 241 240 250 265 267 271 272 277 283 286 288 290 291 290 289 288 286 285 282 279 276 275 274 271 266 268 271 269 267 267 266 266 261 263 265 276 286 288 291 282
139 164 178 235 247 276 282 281 283 284 289 298 297 295 295 294 294 293 291 290 288 286 284 282 278 270 265 265 264 264 265 266 262 259 256 255 257 261 277 278 280 285 265
144 150 236 233 292 297 296 294 301 302 302 300 299 300 300 299 297 296 295 294 294 294 294 293 288 282 275 267 264 261 258 261 259 257 253 248 244 253 272 265 258 227 208
142 259 219 271 294 297 296 299 302 304 312 314 316 316 314 312 313 310 305 300 301 304 304 303 293 284 282 270 265 264 257 252 255 257 250 244 236 236 248 229 225 222 218
221 124 284 311 310 306 319 327 327 329 329 327 327 327 326 330 335 330 323 321 316 315 309 303 296 292 289 271 269 266 261 252 242 243 230 230 223 224 215 203 207 209 216
155 147 351 338 350 346 342 339 342 344 342 341 337 332 335 338 330 330 331 324 322 315 317 318 307 297 290 281 269 264 263 246 225 219 214 215 215 208 205 198 197 202 195
107 80 39 15 359 351 352 354 353 349 353 354 351 347 343 343 333 329 327 329 323 322 319 315 313 304 292 279 270 262 254 239 223 205 202 210 206 197 198 195 205 192 196
93 60 23 4 2 5 6 359 358 8 12 15 15 11 6 6 352 345 344 333 336 333 321 321 316 304 285 287 272 265 257 242 218 207 209 209 205 192 188 188 194 199 192
47 36 45 44 46 43 33 28 27 29 22 18 18 23 25 19 15 9 359 350 350 342 342 342 340 337 293 271 261 258 256 245 210 211 215 207 201 183 180 186 185 189 198
98 83 77 82 73 57 44 43 38 34 37 36 27 20 16 18 18 17 17 12 6 2 356 348 355 354 340 295 267 247 250 237 226 216 203 188 182 175 174 173 174 179 188
111 106 107 90 65 54 50 44 45 50 48 39 31 27 22 16 15 9 11 17 18 13 13 11 6 359 5 14 1 269 225 205 189 194 187 177 163 154 155 160 160 156 166
127 119 104 91 82 73 60 55 61 57 56 52 42 40 34 22 21 13 12 14 21 25 26 43 41 37 39 44 51 80 125 174 171 105 137 131 135 137 136 141 148 147 143
145 131 119 102 86 75 62 62 64 70 67 59 48 40 35 25 29 20 19 19 24 31 45 47 51 45 54 68 89 98 103 106 112 120 96 107 109 120 125 124 114 126 125
158 148 136 114 93 77 68 61 61 51 40 33 27 24 25 24 24 31 24 22 23 23 46 41 43 47 48 58 89 101 100 110 125 132 134 130 115 121 110 108 115 116 119
169 162 155 142 121 89 65 49 39 23 23 17 13 19 20 21 23 36 38 35 33 32 44 51 55 58 56 55 62 65 63 78 88 113 117 118 125 125 115 100 97 108 133
188 181 177 182 173 115 35 359 357 1 357 357 358 4 4 7 15 17 17 26 32 35 39 61 69 71 58 51 52 58 72 76 73 74 82 80 81 194 127 148 145 127 150
203 201 209 220 231 247 287 317 321 324 327 337 342 350 2 13 3 14 14 14 23 23 36 63 77 69 52 48 56 58 75 89 85 89 96 112 129 121 125 136 164 181 197
211 214 220 228 240 250 270 293 313 326 329 326 328 337 347 357 4 357 10 19 19 25 38 36 43 33 33 22 35 53 66 81 89 81 87 102 108 121 168 164 163 178 191
219 222 225 234 241 250 266 270 290 316 332 328 326 328 335 351 353 3 14 26 30 31 38 45 35 23 17 10 24 50 64 78 61 49 57 67 79 85 70 45 215 215 212
232 231 232 237 243 254 263 262 276 290 311 321 323 330 334 343 4 14 18 19 19 22 17 14 11 22 28 22 15 39 14 50 78 99 64 183 292 306 306 299 291 278 278
241 237 235 237 240 230 251 261 259 268 277 291 317 326 328 317 322 330 344 346 351 352 356 11 11 26 17 37 57 95 64 58 35 63 20 311 307 352 337 320 310 303 300
242 237 235 232 233 238 245 258 249 239 254 285 296 321 325 328 342 335 335 322 327 345 347 337 355 359 340 357 310 320 299 306 286 257 307 303 285 293 291 275 280 292 296
242 239 234 228 227 235 237 252 237 240 261 281 293 297 303 317 323 325 331 338 333 318 336 327 317 332 356 336 310 308 281 276 272 274 275 280 289 296 298 296 303 308 307